Theta_e
282 283 283 281 281 281 280 279 275 278 277 282 282 281 281 282 283 285 282 280 279 279 279 279 279 279 279 279 279 279 279 279 278 279 278 278 277 277 277 277 278 278 277 277
274 281 281 278 280 279 280 280 279 280 278 284 282 279 279 280 281 282 281 281 280 280 279 279 279 279 280 279 280 279 278 276 278 277 277 277 277 277 277 276 276 276 276 276
269 275 273 267 273 277 278 278 277 274 277 275 277 279 279 279 278 278 279 279 279 279 279 279 279 280 279 279 278 275 274 273 274 274 274 274 274 274 273 272 273 272 273 273
266 264 259 275 276 276 276 277 275 274 272 275 278 278 278 278 277 278 278 279 279 278 278 279 279 279 278 278 276 275 273 271 271 272 271 271 270 269 269 270 269 269 270 270
267 262 269 274 275 274 273 273 275 274 274 278 277 275 274 278 278 278 278 279 279 279 278 278 277 277 276 275 275 273 273 272 271 269 267 268 266 266 267 266 266 266 267 267
260 258 259 271 273 276 276 267 271 271 273 273 275 269 272 277 279 279 279 279 279 279 279 276 275 275 273 272 271 270 271 270 269 268 263 264 265 264 264 264 265 265 265 265
269 259 264 273 275 277 264 269 270 272 275 274 273 276 277 278 278 279 280 279 279 278 277 275 274 272 271 270 268 269 268 267 265 265 263 263 262 263 262 262 263 261 262 262
264 264 262 276 275 271 275 277 277 276 277 277 278 278 278 278 278 278 278 278 277 276 274 273 271 270 268 267 268 265 264 263 262 260 261 262 260 260 260 260 259 259 260 261
269 268 276 277 278 279 279 277 278 277 278 278 278 277 277 277 278 278 277 278 276 273 271 271 268 267 266 266 265 263 258 256 256 258 260 261 259 259 259 259 259 259 260 260
269 273 275 277 280 279 279 279 280 280 279 278 277 278 279 278 278 277 275 273 269 268 266 266 266 267 265 263 262 254 251 256 258 258 259 259 260 261 259 258 259 259 259 260
271 275 276 277 277 279 280 279 279 279 279 279 278 278 278 278 276 275 273 270 268 266 266 265 265 264 261 261 257 255 255 258 258 258 257 259 260 260 260 262 263 263 265 265
271 278 277 278 279 279 278 279 279 279 278 277 277 277 277 276 275 273 270 267 265 264 264 264 262 262 260 259 254 253 256 258 259 259 259 260 259 259 264 266 268 270 271 270
278 281 279 280 280 280 278 279 279 278 278 277 277 276 273 272 270 268 266 265 264 263 263 261 260 260 258 254 251 250 252 257 258 259 258 258 258 258 257 261 267 267 268 270
280 279 278 279 278 279 279 279 276 273 273 273 273 267 267 267 265 264 263 262 261 259 260 257 257 257 256 254 250 249 251 256 256 257 257 258 258 258 258 257 257 259 264 267
279 280 281 281 276 277 274 271 269 270 268 266 265 265 265 264 262 263 261 259 258 255 258 256 256 256 253 251 251 250 253 254 254 256 258 258 257 257 258 258 258 258 260 262
276 272 272 274 277 272 269 267 268 269 267 266 265 263 263 262 260 258 257 254 253 253 254 253 253 254 252 250 250 249 250 255 257 253 256 256 256 256 257 257 257 258 258 259
272 272 264 265 269 268 267 267 267 267 265 263 261 259 257 255 253 252 252 249 249 250 253 251 253 252 250 249 249 250 250 252 254 253 254 254 255 255 255 256 256 257 258 260
271 268 267 267 267 267 264 263 262 261 258 258 257 256 254 252 252 250 249 245 245 248 250 251 252 253 250 249 249 249 249 248 249 251 253 253 252 254 254 255 255 256 257 258
263 264 263 264 263 262 260 258 256 256 256 255 255 254 252 251 248 246 243 243 244 245 251 248 257 255 252 252 253 250 249 249 251 253 252 252 251 250 250 252 254 254 255 256
258 258 257 256 255 255 254 253 253 252 248 249 246 246 246 245 243 243 241 244 248 252 248 247 247 248 248 249 255 249 248 250 253 254 250 249 249 250 250 252 252 252 251 253
255 255 254 254 252 252 251 249 250 249 247 245 246 245 245 246 242 240 242 244 249 247 248 250 250 251 249 250 252 249 250 253 253 253 246 248 248 247 249 247 248 250 251 251
251 252 252 252 251 247 244 244 245 245 245 244 243 245 244 246 243 241 245 248 251 251 250 253 254 253 254 259 254 253 254 254 253 250 249 247 245 245 246 248 248 250 251 251
250 250 250 249 249 247 242 242 243 243 244 245 245 244 245 249 248 248 249 249 252 253 255 256 257 260 260 256 255 254 254 254 253 252 250 248 246 244 246 247 247 248 249 250
249 248 247 245 241 244 247 245 242 242 242 243 244 245 247 247 248 249 253 255 257 259 256 256 258 263 257 255 255 255 254 253 251 250 249 249 243 244 244 245 246 247 248 249
249 246 246 246 246 246 244 243 242 243 243 244 244 248 247 252 251 251 252 254 259 258 257 258 261 260 255 255 254 254 253 251 249 248 247 243 243 243 243 243 244 245 246 247
247 249 246 246 246 245 244 244 245 244 243 245 244 246 249 249 250 252 254 257 257 257 257 257 256 256 256 255 254 253 253 252 252 250 248 246 244 244 245 246 246 246 246 246
247 248 245 245 244 243 242 243 244 245 244 243 246 249 248 248 250 255 256 256 256 256 256 256 255 255 255 254 253 253 252 252 251 250 247 245 245 245 246 246 246 245 247 247
Wind_Speed
3 5 4 5 8 7 8 6 8 16 10 15 7 5 8 5 3 6 7 8 9 8 7 7 7 7 6 6 6 5 4 2 3 3 4 4 5 6 6 7 7 8 10 10
3 3 5 7 14 6 12 13 11 14 20 14 8 2 2 4 5 6 7 7 8 8 8 9 8 7 6 5 3 0 2 3 4 5 7 7 7 9 10 11 12 12 13 13
6 2 3 9 10 17 12 9 9 11 13 1 5 6 7 7 6 6 6 6 7 8 8 7 7 6 4 4 3 4 3 3 5 5 5 6 8 11 13 14 14 15 15 15
3 4 3 6 2 4 10 8 7 2 4 6 6 5 6 7 6 7 6 7 7 5 5 6 4 5 6 5 3 3 2 3 4 5 5 8 10 11 12 12 14 14 15 15
5 5 7 13 7 8 8 9 7 7 4 6 4 2 4 6 6 7 7 7 8 7 5 5 6 6 6 4 3 3 2 2 2 3 6 8 9 11 11 13 13 14 14 16
4 6 11 8 1 5 5 6 7 8 8 6 7 3 7 7 7 8 8 7 7 7 5 7 5 5 4 3 2 0 2 4 5 5 3 8 10 11 10 11 14 12 15 14
10 4 10 9 6 2 6 9 5 7 7 8 6 10 6 8 7 6 8 8 6 7 8 7 6 5 5 4 3 2 2 3 4 6 7 9 10 9 11 12 13 13 14 13
3 4 10 9 6 8 7 3 6 7 8 11 13 8 7 9 9 9 9 6 8 8 8 6 5 4 4 2 2 2 1 3 5 5 6 8 9 10 10 11 12 12 13 12
13 10 4 8 8 13 5 6 7 7 9 12 11 10 10 10 10 10 8 8 7 7 7 5 5 4 3 2 0 1 2 4 6 7 7 8 8 11 9 9 8 10 10 11
5 6 6 8 12 5 7 9 8 10 12 10 11 12 13 10 9 8 7 9 6 8 6 5 4 4 2 2 1 1 4 6 5 5 7 5 6 8 8 8 8 10 11 12
4 6 7 9 9 10 12 10 11 9 12 14 12 13 11 9 8 7 7 6 7 7 6 6 5 3 2 2 1 3 5 5 5 5 5 7 7 9 8 10 12 12 11 12
8 16 13 12 8 8 9 13 14 13 11 10 11 13 9 10 6 6 8 6 5 5 5 5 4 2 2 3 3 3 4 4 4 6 5 6 7 9 18 21 25 26 27 21
15 18 9 13 10 9 10 13 12 10 13 11 9 9 5 5 4 5 6 6 5 5 5 4 2 3 3 4 3 4 5 5 5 6 5 7 7 8 10 16 25 22 21 24
12 7 10 16 11 9 10 14 5 2 2 3 4 2 3 4 4 5 5 5 6 5 3 3 3 4 4 3 3 4 4 7 5 5 5 6 7 8 8 9 12 16 16 21
14 14 19 16 2 8 2 4 5 6 3 2 3 4 4 5 5 5 5 5 4 2 2 2 3 6 3 3 4 4 4 3 4 4 5 7 7 8 8 8 9 10 12 15
5 3 4 10 14 4 6 3 5 4 5 4 4 4 4 4 5 5 4 4 3 3 4 4 5 6 4 3 4 3 3 7 5 2 5 5 6 7 7 7 9 9 9 10
4 9 1 5 8 6 7 2 2 3 4 4 4 5 6 5 4 2 2 1 3 5 5 5 8 4 4 4 5 3 2 4 4 3 4 5 5 6 6 7 8 8 9 9
6 3 4 4 5 7 5 5 5 5 4 5 6 5 4 3 3 3 4 3 4 6 7 8 6 5 5 5 4 3 3 3 2 4 4 4 4 5 5 6 7 8 8 8
4 8 6 7 5 7 7 6 5 6 6 5 5 4 2 2 2 4 2 3 4 4 7 3 6 5 5 5 4 3 3 2 3 3 3 4 4 4 4 4 6 7 7 8
6 7 9 7 6 4 7 5 6 6 3 4 4 2 2 4 4 4 2 5 7 6 5 5 4 4 5 5 3 2 2 3 3 3 2 2 3 4 4 5 5 5 5 6
8 8 8 8 7 6 6 4 5 4 2 3 3 3 4 6 4 3 3 3 7 5 6 7 5 4 3 4 3 3 3 3 3 2 3 3 4 4 3 4 5 5 6 5
4 7 7 7 7 5 3 3 3 2 1 1 3 3 3 6 4 4 7 8 6 4 3 3 4 5 4 5 3 3 3 3 3 2 3 2 3 3 4 4 5 5 6 6
7 6 7 6 6 5 1 1 2 3 2 3 4 4 4 3 2 1 4 4 4 6 4 4 5 7 8 3 3 2 3 3 3 3 3 3 4 3 3 4 5 4 6 6
6 6 5 4 4 4 5 1 1 3 4 4 5 5 3 2 4 4 5 8 9 6 3 3 5 9 6 2 2 2 3 3 3 3 3 5 3 3 3 4 5 4 5 7
6 5 4 4 5 3 2 3 2 2 2 3 4 2 3 3 4 4 3 4 6 3 2 4 5 4 1 1 2 3 3 3 3 3 4 4 4 4 4 4 5 5 5 5
4 3 3 3 2 2 2 1 1 2 1 3 3 2 3 3 3 3 3 4 3 4 2 1 1 2 3 3 4 4 4 4 4 4 5 4 4 5 5 5 5 5 5 6
3 4 3 2 1 1 1 2 2 2 1 1 3 3 3 3 3 3 4 3 3 3 3 2 3 4 4 4 4 4 4 4 5 5 4 4 4 5 5 6 6 5 6 6
Wind_Direction
164 141 182 221 237 166 199 205 206 264 231 259 259 237 247 228 201 190 181 193 201 202 203 203 205 214 215 212 198 198 208 243 321 312 282 281 288 282 283 278 282 277 285 283
300 201 218 256 259 194 215 242 243 253 269 271 284 198 180 210 197 197 200 203 207 214 207 209 214 219 220 231 233 50 37 8 344 351 355 343 337 333 325 318 314 309 302 299
250 57 75 300 230 226 238 211 217 227 241 323 277 240 221 217 189 187 201 207 207 209 208 214 222 218 192 136 95 70 41 5 358 356 352 347 334 325 319 314 312 307 305 305
180 42 253 252 263 237 226 248 201 196 228 204 229 240 204 207 197 226 228 230 224 212 209 214 166 122 121 110 103 90 48 360 10 15 345 328 321 316 312 309 308 306 304 304
169 204 310 288 227 177 177 256 186 189 222 228 232 101 283 229 218 213 203 213 216 213 195 153 136 128 120 109 94 56 20 61 51 355 317 316 308 306 306 305 302 300 298 302
116 171 211 250 234 125 116 285 219 167 214 198 138 173 241 209 197 215 224 224 215 195 142 133 140 123 117 118 89 336 54 354 338 321 294 303 299 300 297 294 294 298 298 297
222 237 281 243 231 131 112 242 195 180 216 173 188 210 208 202 224 224 234 228 185 163 167 151 133 137 136 151 184 118 42 335 315 304 301 292 289 292 294 293 294 294 293 293
134 201 269 181 91 183 206 173 176 198 206 196 214 224 224 219 225 241 226 182 169 158 154 143 137 126 138 167 107 49 340 283 282 279 283 290 283 287 287 287 288 292 292 291
188 203 235 196 198 221 159 183 208 201 215 205 211 225 230 232 228 232 211 184 166 155 143 133 127 117 158 179 9 270 278 271 269 271 273 272 279 287 291 285 290 292 291 290
93 216 221 202 239 240 194 214 216 211 214 200 215 232 239 232 235 220 185 172 144 141 154 169 167 147 182 229 217 242 271 277 275 267 275 272 275 284 284 287 290 286 284 282
275 286 254 244 230 237 252 229 238 226 219 228 220 237 223 238 229 215 171 146 152 163 162 167 162 177 205 238 188 263 261 274 281 270 273 289 273 282 282 281 281 284 288 292
234 245 238 252 242 227 223 236 231 227 240 229 204 227 215 226 215 171 163 146 151 155 153 165 166 213 225 234 201 233 275 278 280 286 290 291 291 292 292 301 302 301 304 306
241 252 243 251 248 246 219 240 232 217 224 231 225 213 181 193 165 125 128 148 161 168 153 158 173 250 240 243 197 225 237 274 280 287 288 291 295 295 301 311 308 309 313 318
237 236 261 250 240 242 227 243 227 209 222 219 187 102 112 124 99 142 162 153 126 136 181 179 212 250 238 243 230 246 252 264 271 270 280 287 289 291 296 302 307 314 321 323
239 216 234 256 218 238 201 138 195 210 163 94 57 124 123 141 156 166 127 110 102 133 247 227 261 267 246 236 231 241 260 258 252 269 279 286 292 289 292 299 300 300 312 324
237 186 208 222 250 216 174 173 194 182 166 158 152 144 138 114 116 117 110 119 132 214 236 231 244 243 244 238 240 251 244 262 266 274 289 286 289 290 299 303 302 303 312 318
176 262 143 251 216 197 199 148 127 118 110 125 122 105 94 94 78 25 304 166 191 240 253 226 251 243 243 218 216 224 237 244 257 272 274 277 282 285 293 299 300 305 307 317
188 140 122 158 183 155 126 96 92 87 80 97 98 105 115 134 214 255 278 309 313 288 252 242 237 244 241 230 216 218 218 235 244 253 271 276 277 282 293 298 300 306 313 320
145 140 119 96 85 112 116 116 106 111 110 117 126 142 167 222 231 260 316 318 295 294 281 243 231 171 222 238 226 190 205 243 253 265 263 274 284 279 278 288 298 302 312 323
105 90 98 98 72 79 109 90 103 102 79 88 92 87 281 276 254 260 247 242 244 243 256 251 248 260 244 240 266 188 202 228 255 278 287 280 282 281 294 293 293 299 301 310
122 119 115 114 100 84 93 116 113 106 93 109 137 238 247 283 270 242 288 281 266 242 245 248 218 232 217 222 215 183 196 230 248 270 265 275 293 289 285 286 283 288 301 301
117 115 117 115 110 100 62 60 84 103 132 230 237 250 263 283 286 280 235 232 275 261 250 228 230 227 229 228 171 192 215 233 246 248 261 259 261 280 288 290 296 303 301 299
108 102 105 108 124 143 163 195 195 180 208 225 243 231 218 242 218 253 302 259 245 272 249 242 239 248 245 166 178 202 231 242 246 246 256 257 258 256 272 285 286 294 301 301
111 99 104 109 102 88 102 293 283 243 228 260 248 231 217 285 303 223 249 274 274 271 255 246 264 272 115 140 205 234 243 248 246 249 257 264 251 259 268 272 284 285 285 291
92 104 117 124 119 147 178 264 319 357 23 354 328 331 209 222 197 270 271 276 294 323 267 283 294 340 92 201 249 254 252 241 244 242 247 245 260 261 262 264 264 270 276 282
135 135 142 145 134 175 203 151 148 270 43 358 314 313 317 294 293 301 295 311 307 316 309 301 284 282 265 261 257 259 257 252 254 257 252 247 249 258 259 268 266 269 275 275
85 112 86 50 310 219 203 168 124 295 264 192 259 279 282 301 291 306 316 308 305 299 290 283 288 284 272 265 259 256 252 252 254 254 250 254 251 252 260 264 266 270 276 278